Regional Weather Roundup
Issued by NWS

Home | Current Version | Previous Version | Graphics & Text | Print | Product List | Glossary Off
Versions: 1 2 3 4 5 6 7 8 9 10 11 12 13 14 15 16 17 18 19 20 21 22 23 24 25 26 27 28 29 30 31 32 33 34 35 36 37 38 39 40 41 42 43 44 45 46 47 48 49 50

000
ASUS43 KLOT 010710
RWRIL

ILLINOIS REGIONAL WEATHER ROUNDUP
NATIONAL WEATHER SERVICE CHICAGO/ROMEOVILLE IL
200 AM CDT MON SEP 01 2014

NOTE: "FAIR" INDICATES FEW OR NO CLOUDS BELOW 12,000 FEET WITH NO
SIGNIFICANT WEATHER AND/OR OBSTRUCTIONS TO VISIBILITY.

* THESE STATIONS ARE NOT UNDER NWS QUALITY CONTROL. THEY ALSO MAY NOT
  REPORT WEATHER SUCH AS PRECIPITATION OR FOG.

ILZ001-002-007-009-015-016-024-010800-
NORTHWEST ILLINOIS

CITY           SKY/WX    TMP DP  RH WIND       PRES   REMARKS
MOLINE         CLOUDY    75  70  84 S13       29.78F
STERLING*      CLOUDY    73  70  88 S5        29.81F
SAVANNA*       CLOUDY    73  69  87 S5        29.78F
$$

ILZ003-004-008-010-011-017-018-010800-
NORTH CENTRAL ILLINOIS

CITY           SKY/WX    TMP DP  RH WIND       PRES   REMARKS
ROCKFORD       CLOUDY    72  68  87 S7        29.83S
FREEPORT*      CLOUDY    73  71  93 S8        29.83F
ROCHELLE*      MOCLDY    71  69  93 S7        29.83F
DE KALB*       MOCLDY    69  67  95 S9        29.85S FOG
PERU*          MOCLDY    73  71  93 S12       29.83F
$$

ILZ005-006-012>014-019>023-010800-
NORTHEAST ILLINOIS

CITY           SKY/WX    TMP DP  RH WIND       PRES   REMARKS
CHICAGO-OHARE  PTCLDY    75  68  78 S12       29.84F
CHICAGO-MIDWAY PTCLDY    76  71  85 S9        29.84F
AURORA         PTCLDY    72  68  87 S8        29.84F FOG
LANSING*         N/A    N/A N/A N/A MISG        N/A
JOLIET*        PTCLDY    73  69  88 S8        29.86F
WAUKEGAN       CLEAR     73  69  87 S12       29.82F
DUPAGE AIRPORT PTCLDY    73  70  90 S13       29.84F
KANKAKEE*      CLEAR     71  69  96 S8        29.89S
WHEELING       CLEAR     75  70  84 S9        29.85F
MORRIS*        PTCLDY    72  72 100 S6        29.84F FOG
ROMEOVILLE*    PTCLDY    71  70  98 S7        29.85F
NORTHERLY ISL    N/A     75  68  78 SW12        N/A
$$

LMZ740>746-010800-
SOUTHERN LAKE MICHIGAN

STATION/POSITION SKY/WX   TEMP    WIND        PRES    VSBY  WAVE
                          AIR SEA DIR/SP/G                  HT/PER
                          (F)     (DEG/KT/KT) (MB)    (MI)  (FT/S)
SOUTHERN BUOY              73 70  180/ 14/ 16 1010.1F         1/ 3
WAUKEGAN HARBOR            71     200/ 10/ 11   N/A
HARRISON CRIB              74     190/ 16/ 19   N/A
BURNHAM HARBOR             75     210/  9/ 14   N/A
CALUMET HARBOR             74     200/  8/ 11 1009.8F
MICHIGAN CITY              72     150/ 11/ 15   N/A
MICHIGAN CITY 6N           72 73  170/  6/  8   N/A           1
ST. JOSEPH                 73 73  160/ 12/ 16   N/A           1/ 2
$$

ILZ025>027-034>036-040-047-049-050-058-095>099-010800-
WEST-CENTRAL ILLINOIS

CITY           SKY/WX    TMP DP  RH WIND       PRES   REMARKS
QUINCY         CLOUDY    77  69  76 S13       29.82F
GALESBURG*     CLOUDY    72  71  96 S6        29.82F
MACOMB*        CLOUDY    73  71  92 S10       29.84F
JACKSONVILLE*  MOCLDY    76  73  87 S12G17    29.87R
PITTSFIELD*    CLOUDY    76  70  82 S7        29.86F
$$

ILZ028>032-037-038-041>044-048-051>054-059>061-010800-
CENTRAL ILLINOIS

CITY           SKY/WX    TMP DP  RH WIND       PRES   REMARKS
PONTIAC        PTCLDY    73  73 100 S12       29.85F
DECATUR        PTCLDY    74  71  91 S10       29.89F
PEORIA         PTCLDY    74  70  87 S9        29.84F
LACON*         MOCLDY    73  70  91 S6        29.83S
LINCOLN*       PTCLDY    73  71  92 S8        29.83F
SPRINGFIELD    PTCLDY    75  71  87 S12       29.86F
TAYLORVILLE    PTCLDY    72  70  94 S8        29.88F
$$

ILZ033-039-045-046-055>057-062-063-010800-
EAST-CENTRAL ILLINOIS

CITY           SKY/WX    TMP DP  RH WIND       PRES   REMARKS
CHAMPAIGN      PTCLDY    72  70  93 S8        29.91F
DANVILLE*      PTCLDY    72  71  97 S9        29.89F
RANTOUL*       CLEAR     72  69  90 S6        29.91F
MATTOON        PTCLDY    73  70  90 S8        29.91F
PARIS*         PTCLDY    72  71  98 S6        29.93F
$$

ILZ079-100>102-010800-
SOUTHWEST ILLINOIS

CITY           SKY/WX    TMP DP  RH WIND       PRES   REMARKS
BELLEVILLE     PTCLDY    75  74  99 VRB3      29.89S
CAHOKIA*       CLEAR     76  72  87 VRB3      29.89R
SPARTA*        CLEAR     74  72  92 S7        29.93S
$$

ILZ064>066-069>071-074>076-080>082-084>086-088>090-092>094-010800-
SOUTH-CENTRAL ILLINOIS

CITY           SKY/WX    TMP DP  RH WIND       PRES   REMARKS
CARBONDALE     CLEAR     75  71  87 S10       29.94S
CAIRO*         CLEAR     77  73  86 S8        29.96S
EFFINGHAM*     PTCLDY    72  68  88 SE6       29.92F
MARION         CLEAR     75  73  94 S10       29.95F
MT. VERNON     PTCLDY    73  70  88 S9        29.94S
CENTRALIA*     PTCLDY    73  70  88 S8        29.92F
SALEM*         PTCLDY    76  74  91 S8        29.93S
METROPOLIS*    CLEAR     75  74  97 S6        29.97S
$$

ILZ067-068-072-073-078-083-087-091-010800-
SOUTHEAST ILLINOIS

CITY           SKY/WX    TMP DP  RH WIND       PRES   REMARKS
LAWRENCEVILLE  CLEAR     73  72  96 S7        29.95F
FLORA*         CLEAR     72  71  95 S7        29.94S
FAIRFIELD*     CLEAR     73  72  94 S5        29.94S
HARRISBURG*    CLEAR     74  74  97 S7        29.97S
ROBINSON*      CLEAR     74  72  95 S6        29.95F
CARMI*         CLEAR     73  72  98 S5        29.95F
$$

ABBREVIATIONS USED IN REMARKS
   TC - TEMPERATURE IN CELSIUS
  WCI - WIND CHILL INDEX
   HX - HEAT INDEX
  VSB - VISIBILITY
$$



USA.gov is the U.S. government's official web portal to all federal, state and local government web resources and services.